カタログに戻る

NILESAT 301

運用中通信GEO
NORAD 52817·PAYLOAD·🇪🇬 Egypt

打ち上げ Jun 8, 2022 から Cape Canaveral Space Force Station

Loading…

TLE

最新Source: Space-Track

元期: Sep 14, 2026, 08:38 UTC

1 52817U 22061A   26257.35991840 -.00000066  00000-0  00000-0 0  9998
2 52817   0.0554   2.8209 0001300 141.1712 331.9128  1.00270551 15634

AllMySatでNILESAT 301をリアルタイム追跡

Download on the App Store